Flag for Thailand Weather past 2 weeks in Phuket, Thailand

Now
82 °F

Passing clouds.


Feels Like: 88 °F
Forecast: 80 / 84 °F
Wind: 3 mph from North

Location: Phuket Airport

Current Time: Jun 30, 2015 at 10:38:09 PM

Latest Report: Jun 30, 2015 at 10:00 PM


Visibility: N/A

Pressure: 29.95 "Hg

Humidity: 74%

Dew point: 73 °F

Location of PhuketLocation

Historic Weather in Phuket — Graph

°F

Phuket temperature yesterday

Maximum temperature yesterday: 90 °F (at 1:00 PM)
Minimum temperature yesterday: 77 °F (at 12:00 AM)
Average temperature yesterday: 83 °F

Past Weeks' High & Low Weather Summary

 TemperatureHumidityPressure
High91 °F (Jun 27, 12:30 PM)100% (Jun 23, 12:00 AM)30.01 "Hg (Jun 23, 12:00 AM)
Low36 °F (Jun 23, 12:00 AM)55% (Jun 26, 2:00 PM)29.71 "Hg (Jun 18, 4:00 PM)
Average82 °F79%29.84 "Hg
* Reported Jun 15 8:00 PM — Jun 30 8:30 PM, Phuket, Weather by CustomWeather, © 2015

Note: Actual official high and low records may vary slightly from our data, if they occured in-between our weather recording intervals... More about our weather records

Advertising

Phuket weather history for previous 24 hours

 ConditionsComfort  
Time TempWeatherWind HumidityBarometerVisibility
8:30 PM
Tue, Jun 30
84 °FPassing clouds.8 mph70%29.92 "HgN/A
8:00 PM84 °FPassing clouds.10 mph70%29.89 "HgN/A
7:30 PM84 °FPassing clouds.12 mph70%29.89 "HgN/A
7:00 PM84 °FPassing clouds.8 mph70%29.89 "HgN/A
6:30 PM86 °FPartly sunny.10 mph66%29.86 "HgN/A
6:00 PM86 °FPartly sunny.12 mph66%29.86 "HgN/A
5:30 PM88 °FPartly sunny.12 mph66%29.86 "HgN/A
5:00 PM88 °FPartly sunny.14 mph62%29.86 "HgN/A
4:30 PM88 °FBroken clouds.13 mph66%29.86 "HgN/A
4:00 PM88 °FBroken clouds.13 mph62%29.89 "HgN/A
3:30 PM88 °FBroken clouds.14 mph62%29.89 "HgN/A
3:00 PM88 °FBroken clouds.12 mph66%29.89 "HgN/A
2:30 PM88 °FBroken clouds.10 mph66%29.89 "HgN/A
2:00 PM88 °FBroken clouds.10 mph66%29.89 "HgN/A
1:30 PM88 °FBroken clouds.9 mph66%29.92 "HgN/A
1:00 PM88 °FBroken clouds.9 mph66%29.92 "HgN/A
12:30 PM88 °FPartly sunny.9 mph66%29.92 "HgN/A
12:00 PM88 °FBroken clouds.9 mph66%29.92 "HgN/A
11:30 AM88 °FBroken clouds.8 mph62%29.95 "HgN/A
11:00 AM88 °FBroken clouds.9 mph66%29.95 "HgN/A
10:30 AM88 °FBroken clouds.6 mph66%29.95 "HgN/A
10:00 AM86 °FBroken clouds.5 mph70%29.95 "HgN/A
9:00 AM84 °FBroken clouds.2 mph74%29.95 "HgN/A
8:30 AM84 °FBroken clouds.2 mph79%29.95 "HgN/A
8:00 AM81 °FPartly sunny.2 mph89%29.92 "HgN/A
7:30 AM79 °FPartly sunny.1 mph94%29.92 "Hg6 mi
7:00 AM79 °FPartly sunny.1 mph89%29.92 "Hg5 mi
6:30 AM77 °FPartly sunny.1 mph94%29.89 "Hg5 mi
6:00 AM77 °FPassing clouds.2 mph94%29.89 "Hg5 mi
5:30 AM77 °FPassing clouds.No wind94%29.89 "Hg5 mi
4:30 AM79 °FPassing clouds.2 mph89%29.89 "Hg5 mi
4:00 AM79 °FPartly cloudy.2 mph89%29.89 "Hg5 mi
3:30 AM79 °FPassing clouds.2 mph89%29.89 "Hg6 mi
3:00 AM79 °FPassing clouds.1 mph89%29.89 "Hg6 mi
2:30 AM79 °FPassing clouds.1 mph89%29.89 "Hg6 mi
2:00 AM79 °FPassing clouds.No wind89%29.92 "Hg6 mi
1:30 AM79 °FPassing clouds.No wind89%29.92 "Hg6 mi
1:00 AM79 °FPassing clouds.1 mph89%29.92 "Hg6 mi
12:30 AM79 °FPassing clouds.1 mph89%29.95 "Hg6 mi
12:00 AM79 °FPassing clouds.No wind89%29.95 "Hg6 mi
11:30 PM
Mon, Jun 29
79 °FPassing clouds.No wind89%29.95 "Hg6 mi
11:00 PM81 °FPassing clouds.1 mph84%29.95 "Hg6 mi
10:30 PM82 °FPassing clouds.3 mph79%29.95 "Hg6 mi
10:00 PM82 °FPassing clouds.3 mph79%29.95 "Hg6 mi
Weather by CustomWeather, © 2015

See weather overviewHow to use our weather pages